| time (UTC) | temp F | wind direction | speed knots | gust knots | rain 1hr in | rain 24hr in | rain mn in | humidity % | barometer mb |
| 20260507203002 | 59 | 78 | 3.5 | 6.1 | 0.00 | 0.00 | 0.00 | 82 | 1011.1 |
| 20260507201600 | 59 | 92 | 1.7 | 5.2 | 0.00 | 0.00 | 0.00 | 83 | 1011.2 |
| 20260507194600 | 59 | 59 | 2.6 | 4.3 | 0.00 | 0.00 | 0.00 | 84 | 1011.2 |
| 20260507193057 | 59 | 97 | 2.6 | 7.8 | 0.00 | 0.00 | 0.00 | 87 | 1011.0 |
| 20260507191559 | 59 | 78 | 1.7 | 5.2 | 0.00 | 0.00 | 0.00 | 88 | 1010.8 |
| 20260507190057 | 59 | 104 | 1.7 | 5.2 | 0.00 | 0.00 | 0.00 | 88 | 1010.8 |
| 20260507184556 | 59 | 104 | 3.5 | 7.0 | 0.00 | 0.00 | 0.00 | 88 | 1010.6 |
| 20260507183055 | 60 | 113 | 2.6 | 6.1 | 0.00 | 0.00 | 0.00 | 86 | 1010.5 |
| 20260507181554 | 60 | 86 | 3.5 | 8.7 | 0.00 | 0.00 | 0.00 | 84 | 1010.6 |
| 20260507180059 | 60 | 80 | 3.5 | 6.1 | 0.00 | 0.00 | 0.00 | 81 | 1010.3 |
| 20260507174606 | 61 | 86 | 3.5 | 8.7 | 0.00 | 0.00 | 0.00 | 80 | 1010.1 |
| 20260507173052 | 61 | 82 | 3.5 | 8.7 | 0.00 | 0.00 | 0.00 | 78 | 1009.8 |
| 20260507171603 | 61 | 63 | 3.5 | 7.8 | 0.00 | 0.00 | 0.00 | 76 | 1010.0 |
| 20260507170051 | 62 | 78 | 3.5 | 9.6 | 0.00 | 0.00 | 0.00 | 74 | 1009.9 |
| 20260507164552 | 62 | 129 | 5.2 | 11.3 | 0.00 | 0.00 | 0.00 | 73 | 1009.8 |
| 20260507163051 | 63 | 40 | 4.3 | 9.6 | 0.00 | 0.00 | 0.00 | 70 | 1009.9 |
| 20260507161547 | 63 | 78 | 6.1 | 10.4 | 0.00 | 0.00 | 0.00 | 68 | 1009.9 |
| 20260507160053 | 63 | 74 | 5.2 | 9.6 | 0.00 | 0.00 | 0.00 | 68 | 1010.0 |
| 20260507154544 | 64 | 86 | 6.1 | 10.4 | 0.00 | 0.00 | 0.00 | 69 | 1010.0 |
| 20260507153046 | 64 | 69 | 4.3 | 9.6 | 0.00 | 0.00 | 0.00 | 70 | 1010.0 |
| 20260507151545 | 64 | 69 | 3.5 | 8.7 | 0.00 | 0.00 | 0.00 | 69 | 1010.1 |
| 20260507150043 | 64 | 74 | 4.3 | 8.7 | 0.00 | 0.00 | 0.00 | 68 | 1010.1 |
| 20260507144542 | 65 | 90 | 4.3 | 9.6 | 0.00 | 0.00 | 0.00 | 68 | 1010.1 |
| 20260507143048 | 66 | 70 | 2.6 | 7.0 | 0.00 | 0.00 | 0.00 | 64 | 1010.0 |
| 20260507141544 | 67 | 31 | 2.6 | 8.7 | 0.00 | 0.00 | 0.00 | 63 | 1010.2 |
| 20260507140048 | 66 | 79 | 4.3 | 9.6 | 0.00 | 0.00 | 0.00 | 64 | 1010.1 |
| 20260507134540 | 67 | 59 | 3.5 | 7.8 | 0.00 | 0.00 | 0.00 | 64 | 1010.2 |
| 20260507133041 | 67 | 78 | 3.5 | 10.4 | 0.00 | 0.00 | 0.00 | 63 | 1010.2 |
| 20260507131538 | 68 | 84 | 1.7 | 7.0 | 0.00 | 0.00 | 0.00 | 61 | 1010.3 |
| 20260507130049 | 67 | 78 | 1.7 | 8.7 | 0.00 | 0.00 | 0.00 | 64 | 1010.3 |
| 20260507124553 | 67 | 63 | 2.6 | 8.7 | 0.00 | 0.00 | 0.00 | 63 | 1010.2 |
| 20260507123036 | 67 | 95 | 4.3 | 9.6 | 0.00 | 0.00 | 0.00 | 62 | 1010.3 |
| 20260507121536 | 69 | 86 | 2.6 | 8.7 | 0.00 | 0.00 | 0.00 | 60 | 1010.3 |
| 20260507120033 | 68 | 19 | 1.7 | 12.2 | 0.00 | 0.00 | 0.00 | 60 | 1010.4 |
| 20260507114532 | 69 | 53 | 4.3 | 12.2 | 0.00 | 0.00 | 0.00 | 58 | 1010.4 |
| 20260507113031 | 72 | 119 | 0.9 | 5.2 | 0.00 | 0.00 | 0.00 | 47 | 1010.4 |
| 20260507111529 | 71 | 9 | 0.0 | 2.6 | 0.00 | 0.00 | 0.00 | 46 | 1010.6 |
| 20260507110031 | 70 | 246 | 0.9 | 3.5 | 0.00 | 0.00 | 0.00 | 49 | 1010.7 |
| 20260507104525 | 70 | 66 | 0.9 | 3.5 | 0.00 | 0.00 | 0.00 | 48 | 1010.8 |
| 20260507103024 | 70 | 258 | 0.9 | 2.6 | 0.00 | 0.00 | 0.00 | 51 | 1010.7 |
| 20260507101525 | 69 | 293 | 1.7 | 4.3 | 0.00 | 0.00 | 0.00 | 54 | 1010.8 |
| 20260507100025 | 70 | 311 | 0.9 | 4.3 | 0.00 | 0.00 | 0.00 | 53 | 1010.9 |
| 20260507094520 | 68 | 29 | 0.0 | 3.5 | 0.00 | 0.00 | 0.00 | 51 | 1010.9 |
| 20260507093026 | 67 | 294 | 2.6 | 4.3 | 0.00 | 0.00 | 0.00 | 53 | 1010.9 |
| 20260507091531 | 68 | 293 | 0.9 | 3.5 | 0.00 | 0.00 | 0.00 | 53 | 1010.8 |
| 20260507090018 | 69 | 348 | 0.9 | 2.6 | 0.00 | 0.00 | 0.00 | 54 | 1010.8 |
| 20260507084520 | 69 | 87 | 0.0 | 6.1 | 0.00 | 0.00 | 0.00 | 53 | 1010.8 |
| 20260507083014 | 68 | 211 | 0.0 | 4.3 | 0.00 | 0.00 | 0.00 | 52 | 1010.7 |
| 20260507081511 | 67 | 185 | 0.9 | 5.2 | 0.00 | 0.00 | 0.00 | 52 | 1010.5 |
| 20260507080010 | 67 | 134 | 0.9 | 2.6 | 0.00 | 0.00 | 0.00 | 53 | 1010.5 |
| 20260507074509 | 67 | 77 | 1.7 | 5.2 | 0.00 | 0.00 | 0.00 | 54 | 1010.3 |
| 20260507073005 | 66 | 350 | 0.0 | 1.7 | 0.00 | 0.00 | 0.00 | 60 | 1010.3 |
| 20260507071504 | 65 | 86 | 0.0 | 3.5 | 0.00 | 0.00 | 0.00 | 64 | 1010.3 |
| 20260507070116 | 63 | 324 | 0.0 | 1.7 | 0.00 | 0.00 | 0.00 | 66 | 1010.3 |
| 20260507064605 | 61 | 360 | 0.9 | 2.6 | 0.00 | 0.00 | 0.00 | 69 | 1010.3 |
| 20260507063059 | 59 | 164 | 0.9 | 4.3 | 0.00 | 0.00 | 0.00 | 72 | 1010.1 |
| 20260507061553 | 57 | 190 | 0.0 | 3.5 | 0.00 | 0.00 | 0.00 | 71 | 1010.2 |
| 20260507060051 | 56 | 257 | 0.0 | 3.5 | 0.00 | 0.00 | 0.00 | 72 | 1010.0 |
| 20260507054553 | 57 | 351 | 0.0 | 5.2 | 0.00 | 0.00 | 0.00 | 74 | 1009.9 |
| 20260507053048 | 57 | 166 | 2.6 | 5.2 | 0.00 | 0.00 | 0.00 | 73 | 1009.9 |
| 20260507051648 | 57 | 198 | 2.6 | 4.3 | 0.00 | 0.00 | 0.00 | 73 | 1009.9 |
| 20260507050046 | 57 | 287 | 0.0 | 2.6 | 0.00 | 0.02 | 0.00 | 75 | 1009.8 |
| 20260507044545 | 57 | 277 | 0.0 | 1.7 | 0.00 | 0.02 | 0.00 | 74 | 1009.7 |
| 20260507043042 | 57 | 241 | 0.0 | 1.7 | 0.00 | 0.02 | 0.00 | 73 | 1009.4 |
| 20260507041541 | 57 | 199 | 0.0 | 2.6 | 0.00 | 0.02 | 0.00 | 74 | 1009.3 |
| 20260507040040 | 58 | 146 | 0.9 | 1.7 | 0.00 | 0.02 | 0.00 | 74 | 1009.3 |
| 20260507034540 | 57 | 150 | 0.0 | 3.5 | 0.00 | 0.02 | 0.00 | 75 | 1009.0 |
| 20260507033037 | 57 | 154 | 0.0 | 1.7 | 0.00 | 0.02 | 0.00 | 77 | 1009.0 |
| 20260507031537 | 57 | 167 | 0.0 | 0.9 | 0.00 | 0.02 | 0.00 | 78 | 1009.0 |
| 20260507030036 | 57 | 167 | 0.0 | 0.9 | 0.00 | 0.02 | 0.00 | 77 | 1008.9 |
| 20260507024536 | 58 | 161 | 0.9 | 1.7 | 0.00 | 0.02 | 0.00 | 77 | 1008.9 |
| 20260507023035 | 58 | 318 | 0.0 | 1.7 | 0.00 | 0.02 | 0.00 | 77 | 1008.8 |
| 20260507021533 | 59 | 210 | 0.0 | 1.7 | 0.00 | 0.02 | 0.00 | 76 | 1008.9 |
| 20260507020041 | 59 | 318 | 0.0 | 1.7 | 0.00 | 0.02 | 0.00 | 76 | 1008.9 |
| 20260507014533 | 58 | 304 | 0.0 | 4.3 | 0.00 | 0.02 | 0.00 | 77 | 1008.9 |
| 20260507013045 | 58 | 279 | 0.0 | 1.7 | 0.00 | 0.02 | 0.00 | 80 | 1008.8 |
| 20260507011531 | 58 | 202 | 1.7 | 4.3 | 0.00 | 0.02 | 0.00 | 79 | 1008.8 |
| 20260507010036 | 58 | 200 | 1.7 | 5.2 | 0.00 | 0.02 | 0.00 | 80 | 1008.8 |
| 20260507004527 | 58 | 222 | 1.7 | 3.5 | 0.00 | 0.02 | 0.00 | 80 | 1008.9 |
| 20260507003027 | 59 | 279 | 0.0 | 1.7 | 0.00 | 0.02 | 0.00 | 78 | 1008.9 |
| 20260507001530 | 59 | 189 | 0.0 | 0.9 | 0.00 | 0.02 | 0.00 | 78 | 1008.9 |
| 20260507000027 | 58 | 294 | 0.9 | 2.6 | 0.00 | 0.02 | 0.00 | 79 | 1009.0 |
| 20260506234531 | 58 | 288 | 0.9 | 2.6 | 0.00 | 0.02 | 0.00 | 82 | 1009.0 |
| 20260506233027 | 59 | 296 | 0.0 | 1.7 | 0.00 | 0.02 | 0.00 | 81 | 1009.0 |
| 20260506231524 | 60 | 101 | 0.0 | 0.9 | 0.00 | 0.02 | 0.00 | 77 | 1008.9 |
| 20260506230021 | 61 | 76 | 1.7 | 4.3 | 0.00 | 0.02 | 0.00 | 74 | 1008.8 |
| 20260506224515 | 61 | 110 | 0.0 | 3.5 | 0.00 | 0.02 | 0.00 | 72 | 1008.8 |
| 20260506223014 | 62 | 236 | 0.9 | 5.2 | 0.00 | 0.02 | 0.00 | 72 | 1009.0 |
| 20260506221512 | 61 | 136 | 3.5 | 7.0 | 0.00 | 0.02 | 0.00 | 72 | 1008.8 |
| 20260506220021 | 61 | 107 | 3.5 | 7.8 | 0.00 | 0.05 | 0.02 | 72 | 1008.8 |
| 20260506214510 | 61 | 116 | 1.7 | 4.3 | 0.00 | 0.05 | 0.02 | 73 | 1009.0 |
| 20260506213008 | 61 | 105 | 1.7 | 7.0 | 0.00 | 0.05 | 0.02 | 74 | 1009.0 |
| 20260506211513 | 61 | 87 | 0.9 | 7.0 | 0.00 | 0.05 | 0.02 | 75 | 1009.0 |
| 20260506210012 | 59 | 138 | 2.6 | 8.7 | 0.00 | 0.10 | 0.02 | 79 | 1008.8 |
| 20260506204506 | 59 | 96 | 0.9 | 2.6 | 0.00 | 0.10 | 0.02 | 82 | 1009.0 |